Year,Month,Day,Hour,Minute,Value (Times are PST for temperature in C)
2010,07,08,00,00,18.10
2010,07,08,00,01,18.10
2010,07,08,00,02,18.00
2010,07,08,00,03,18.00
2010,07,08,00,04,18.00
2010,07,08,00,05,18.00
2010,07,08,00,06,18.00
2010,07,08,00,07,18.00
2010,07,08,00,08,18.00
2010,07,08,00,09,18.00
2010,07,08,00,10,18.00
2010,07,08,00,11,18.10
2010,07,08,00,12,18.10
2010,07,08,00,13,18.10
2010,07,08,00,14,18.10
2010,07,08,00,15,18.10
2010,07,08,00,16,18.10
2010,07,08,00,17,18.10
2010,07,08,00,18,18.10
2010,07,08,00,19,18.10
2010,07,08,00,20,18.10
2010,07,08,00,21,18.10
2010,07,08,00,22,18.10
2010,07,08,00,23,18.10
2010,07,08,00,24,18.10
2010,07,08,00,25,18.10
2010,07,08,00,26,18.10
2010,07,08,00,27,18.10
2010,07,08,00,28,18.10
2010,07,08,00,29,18.10
2010,07,08,00,30,18.10
2010,07,08,00,31,18.10
2010,07,08,00,32,18.00
2010,07,08,00,33,18.00
2010,07,08,00,34,18.00
2010,07,08,00,35,18.00
2010,07,08,00,36,18.00
2010,07,08,00,37,17.90
2010,07,08,00,38,17.90
2010,07,08,00,39,17.90
2010,07,08,00,40,17.90
2010,07,08,00,41,17.90
2010,07,08,00,42,17.90
2010,07,08,00,43,17.90
2010,07,08,00,44,17.90
2010,07,08,00,45,17.90
2010,07,08,00,46,17.90
2010,07,08,00,47,17.90
2010,07,08,00,48,17.80
2010,07,08,00,49,17.80
2010,07,08,00,50,17.80
2010,07,08,00,51,17.80
2010,07,08,00,52,17.70
2010,07,08,00,53,17.70
2010,07,08,00,54,17.60
2010,07,08,00,55,17.60
2010,07,08,00,56,17.60
2010,07,08,00,57,17.60
2010,07,08,00,58,17.60
2010,07,08,00,59,17.60
2010,07,08,01,00,17.50
2010,07,08,01,01,17.60
2010,07,08,01,02,17.50
2010,07,08,01,03,17.50
2010,07,08,01,04,17.50
2010,07,08,01,05,17.50
2010,07,08,01,06,17.50
2010,07,08,01,07,17.40
2010,07,08,01,08,17.40
2010,07,08,01,09,17.40
2010,07,08,01,10,17.40
2010,07,08,01,11,17.40
2010,07,08,01,12,17.30
2010,07,08,01,13,17.30
2010,07,08,01,14,17.20
2010,07,08,01,15,17.20
2010,07,08,01,16,17.20
2010,07,08,01,17,17.10
2010,07,08,01,18,17.10
2010,07,08,01,19,17.10
2010,07,08,01,20,17.10
2010,07,08,01,21,17.10
2010,07,08,01,22,17.10
2010,07,08,01,23,17.00
2010,07,08,01,24,17.00
2010,07,08,01,25,17.00
2010,07,08,01,26,17.00
2010,07,08,01,27,16.90
2010,07,08,01,28,16.90
2010,07,08,01,29,16.90
2010,07,08,01,30,16.90
2010,07,08,01,31,16.90
2010,07,08,01,32,16.90
2010,07,08,01,33,16.90
2010,07,08,01,34,16.90
2010,07,08,01,35,16.90
2010,07,08,01,36,16.80
2010,07,08,01,37,16.80
2010,07,08,01,38,16.80
2010,07,08,01,39,16.70
2010,07,08,01,40,16.70
2010,07,08,01,41,16.70
2010,07,08,01,42,16.70
2010,07,08,01,43,16.70
2010,07,08,01,44,16.70
2010,07,08,01,45,16.70
2010,07,08,01,46,16.70
2010,07,08,01,47,16.70
2010,07,08,01,48,16.60
2010,07,08,01,49,16.60
2010,07,08,01,50,16.60
2010,07,08,01,51,16.60
2010,07,08,01,52,16.60
2010,07,08,01,53,16.60
2010,07,08,01,54,16.60
2010,07,08,01,55,16.60
2010,07,08,01,56,16.60
2010,07,08,01,57,16.60
2010,07,08,01,58,16.60
2010,07,08,01,59,16.70
2010,07,08,02,00,16.60
2010,07,08,02,01,16.70
2010,07,08,02,02,16.70
2010,07,08,02,03,16.70
2010,07,08,02,04,16.70
2010,07,08,02,05,16.60
2010,07,08,02,06,16.60
2010,07,08,02,07,16.60
2010,07,08,02,08,16.60
2010,07,08,02,09,16.60
2010,07,08,02,10,16.70
2010,07,08,02,11,16.70
2010,07,08,02,12,16.70
2010,07,08,02,13,16.70
2010,07,08,02,14,16.70
2010,07,08,02,15,16.70
2010,07,08,02,16,16.80
2010,07,08,02,17,16.80
2010,07,08,02,18,16.80
2010,07,08,02,19,16.80
2010,07,08,02,20,16.80
2010,07,08,02,21,16.80
2010,07,08,02,22,16.70
2010,07,08,02,23,16.70
2010,07,08,02,24,16.70
2010,07,08,02,25,16.60
2010,07,08,02,26,16.60
2010,07,08,02,27,16.60
2010,07,08,02,28,16.50
2010,07,08,02,29,16.50
2010,07,08,02,30,16.50
2010,07,08,02,31,16.40
2010,07,08,02,32,16.40
2010,07,08,02,33,16.40
2010,07,08,02,34,16.40
2010,07,08,02,35,16.30
2010,07,08,02,36,16.30
2010,07,08,02,37,16.30
2010,07,08,02,38,16.30
2010,07,08,02,39,16.30
2010,07,08,02,40,16.30
2010,07,08,02,41,16.30
2010,07,08,02,42,16.30
2010,07,08,02,43,16.30
2010,07,08,02,44,16.30
2010,07,08,02,45,16.30
2010,07,08,02,46,16.20
2010,07,08,02,47,16.20
2010,07,08,02,48,16.30
2010,07,08,02,49,16.30
2010,07,08,02,50,16.30
2010,07,08,02,51,16.30
2010,07,08,02,52,16.30
2010,07,08,02,53,16.30
2010,07,08,02,54,16.30
2010,07,08,02,55,16.30
2010,07,08,02,56,16.30
2010,07,08,02,57,16.30
2010,07,08,02,58,16.20
2010,07,08,02,59,16.20
2010,07,08,03,00,16.20
2010,07,08,03,01,16.20
2010,07,08,03,02,16.20
2010,07,08,03,03,16.20
2010,07,08,03,04,16.20
2010,07,08,03,05,16.20
2010,07,08,03,06,16.20
2010,07,08,03,07,16.20
2010,07,08,03,08,16.10
2010,07,08,03,09,16.10
2010,07,08,03,10,16.10
2010,07,08,03,11,16.10
2010,07,08,03,12,16.10
2010,07,08,03,13,16.00
2010,07,08,03,14,16.00
2010,07,08,03,15,16.00
2010,07,08,03,16,16.00
2010,07,08,03,17,16.00
2010,07,08,03,18,16.00
2010,07,08,03,19,16.00
2010,07,08,03,20,16.00
2010,07,08,03,21,16.00
2010,07,08,03,22,16.00
2010,07,08,03,23,16.00
2010,07,08,03,24,16.00
2010,07,08,03,25,15.90
2010,07,08,03,26,15.90
2010,07,08,03,27,15.90
2010,07,08,03,28,15.90
2010,07,08,03,29,15.80
2010,07,08,03,30,15.80
2010,07,08,03,31,15.80
2010,07,08,03,32,15.70
2010,07,08,03,33,15.70
2010,07,08,03,34,15.70
2010,07,08,03,35,15.60
2010,07,08,03,36,15.60
2010,07,08,03,37,15.60
2010,07,08,03,38,15.50
2010,07,08,03,39,15.50
2010,07,08,03,40,15.50
2010,07,08,03,41,15.40
2010,07,08,03,42,15.40
2010,07,08,03,43,15.40
2010,07,08,03,44,15.30
2010,07,08,03,45,15.30
2010,07,08,03,46,15.30
2010,07,08,03,47,15.30
2010,07,08,03,48,15.30
2010,07,08,03,49,15.30
2010,07,08,03,50,15.30
2010,07,08,03,51,15.20
2010,07,08,03,52,15.20
2010,07,08,03,53,15.20
2010,07,08,03,54,15.20
2010,07,08,03,55,15.20
2010,07,08,03,56,15.20
2010,07,08,03,57,15.20
2010,07,08,03,58,15.20
2010,07,08,03,59,15.20
2010,07,08,04,00,15.20
2010,07,08,04,01,15.20
2010,07,08,04,02,15.20
2010,07,08,04,03,15.10
2010,07,08,04,04,15.20
2010,07,08,04,05,15.10
2010,07,08,04,06,15.10
2010,07,08,04,07,15.10
2010,07,08,04,08,15.10
2010,07,08,04,09,15.10
2010,07,08,04,10,15.10
2010,07,08,04,11,15.10
2010,07,08,04,12,15.10
2010,07,08,04,13,15.20
2010,07,08,04,14,15.20
2010,07,08,04,15,15.10
2010,07,08,04,16,15.10
2010,07,08,04,17,15.10
2010,07,08,04,18,15.10
2010,07,08,04,19,15.00
2010,07,08,04,20,15.00
2010,07,08,04,21,15.00
2010,07,08,04,22,15.00
2010,07,08,04,23,15.00
2010,07,08,04,24,15.00
2010,07,08,04,25,15.00
2010,07,08,04,26,15.00
2010,07,08,04,27,15.00
2010,07,08,04,28,15.00
2010,07,08,04,29,15.00
2010,07,08,04,30,15.00
2010,07,08,04,31,15.00
2010,07,08,04,32,15.00
2010,07,08,04,33,15.00
2010,07,08,04,34,15.00
2010,07,08,04,35,15.00
2010,07,08,04,36,15.00
2010,07,08,04,37,15.00
2010,07,08,04,38,15.00
2010,07,08,04,39,15.00
2010,07,08,04,40,15.00
2010,07,08,04,41,15.00
2010,07,08,04,42,15.00
2010,07,08,04,43,15.00
2010,07,08,04,44,15.00
2010,07,08,04,45,15.00
2010,07,08,04,46,15.00
2010,07,08,04,47,15.00
2010,07,08,04,48,15.00
2010,07,08,04,49,15.00
2010,07,08,04,50,15.00
2010,07,08,04,51,15.00
2010,07,08,04,52,15.00
2010,07,08,04,53,15.00
2010,07,08,04,54,15.00
2010,07,08,04,55,15.00
2010,07,08,04,56,15.00
2010,07,08,04,57,15.00
2010,07,08,04,58,15.00
2010,07,08,04,59,14.90
2010,07,08,05,00,14.90
2010,07,08,05,01,14.90
2010,07,08,05,02,14.90
2010,07,08,05,03,14.90
2010,07,08,05,04,14.90
2010,07,08,05,05,14.90
2010,07,08,05,06,14.90
2010,07,08,05,07,15.00
2010,07,08,05,08,15.00
2010,07,08,05,09,15.00
2010,07,08,05,10,15.00
2010,07,08,05,11,15.00
2010,07,08,05,12,15.00
2010,07,08,05,13,15.00
2010,07,08,05,14,15.00
2010,07,08,05,15,15.00
2010,07,08,05,16,15.00
2010,07,08,05,17,15.00
2010,07,08,05,18,15.00
2010,07,08,05,19,15.00
2010,07,08,05,20,14.90
2010,07,08,05,21,14.90
2010,07,08,05,22,14.90
2010,07,08,05,23,14.80
2010,07,08,05,24,14.80
2010,07,08,05,25,14.80
2010,07,08,05,26,14.80
2010,07,08,05,27,14.80
2010,07,08,05,28,14.80
2010,07,08,05,29,14.80
2010,07,08,05,30,14.80
2010,07,08,05,31,14.80
2010,07,08,05,32,14.80
2010,07,08,05,33,14.80
2010,07,08,05,34,14.80
2010,07,08,05,35,14.80
2010,07,08,05,36,14.80
2010,07,08,05,37,14.80
2010,07,08,05,38,14.70
2010,07,08,05,39,14.70
2010,07,08,05,40,14.70
2010,07,08,05,41,14.70
2010,07,08,05,42,14.70
2010,07,08,05,43,14.70
2010,07,08,05,44,14.70
2010,07,08,05,45,14.60
2010,07,08,05,46,14.60
2010,07,08,05,47,14.60
2010,07,08,05,48,14.60
2010,07,08,05,49,14.60
2010,07,08,05,50,14.60
2010,07,08,05,51,14.60
2010,07,08,05,52,14.60
2010,07,08,05,53,14.60
2010,07,08,05,54,14.60
2010,07,08,05,55,14.50
2010,07,08,05,56,14.50
2010,07,08,05,57,14.50
2010,07,08,05,58,14.50
2010,07,08,05,59,14.50
2010,07,08,06,00,14.50
2010,07,08,06,01,14.50
2010,07,08,06,02,14.60
2010,07,08,06,03,14.60
2010,07,08,06,04,14.60
2010,07,08,06,05,14.60
2010,07,08,06,06,14.60
2010,07,08,06,07,14.60
2010,07,08,06,08,14.60
2010,07,08,06,09,14.60
2010,07,08,06,10,14.60
2010,07,08,06,11,14.60
2010,07,08,06,12,14.60
2010,07,08,06,13,14.60
2010,07,08,06,14,14.70
2010,07,08,06,15,14.70
2010,07,08,06,16,14.70
2010,07,08,06,17,14.70
2010,07,08,06,18,14.70
2010,07,08,06,19,14.70
2010,07,08,06,20,14.70
2010,07,08,06,21,14.70
2010,07,08,06,22,14.70
2010,07,08,06,23,14.70
2010,07,08,06,24,14.70
2010,07,08,06,25,14.70
2010,07,08,06,26,14.70
2010,07,08,06,27,14.70
2010,07,08,06,28,14.80
2010,07,08,06,29,14.80
2010,07,08,06,30,14.80
2010,07,08,06,31,14.80
2010,07,08,06,32,14.80
2010,07,08,06,33,14.90
2010,07,08,06,34,14.90
2010,07,08,06,35,14.90
2010,07,08,06,36,15.00
2010,07,08,06,37,15.00
2010,07,08,06,38,15.00
2010,07,08,06,39,15.00
2010,07,08,06,40,15.00
2010,07,08,06,41,15.00
2010,07,08,06,42,15.00
2010,07,08,06,43,15.00
2010,07,08,06,44,15.00
2010,07,08,06,45,15.00
2010,07,08,06,46,15.10
2010,07,08,06,47,15.20
2010,07,08,06,48,15.20
2010,07,08,06,49,15.20
2010,07,08,06,50,15.30
2010,07,08,06,51,15.30
2010,07,08,06,52,15.30
2010,07,08,06,53,15.30
2010,07,08,06,54,15.30
2010,07,08,06,55,15.30
2010,07,08,06,56,15.30
2010,07,08,06,57,15.30
2010,07,08,06,58,15.30
2010,07,08,06,59,15.30
2010,07,08,07,00,15.40
2010,07,08,07,01,15.40
2010,07,08,07,02,15.40
2010,07,08,07,03,15.40
2010,07,08,07,04,15.40
2010,07,08,07,05,15.50
2010,07,08,07,06,15.50
2010,07,08,07,07,15.60
2010,07,08,07,08,15.60
2010,07,08,07,09,15.60
2010,07,08,07,10,15.70
2010,07,08,07,11,15.70
2010,07,08,07,12,15.70
2010,07,08,07,13,15.80
2010,07,08,07,14,15.80
2010,07,08,07,15,15.80
2010,07,08,07,16,15.90
2010,07,08,07,17,16.00
2010,07,08,07,18,16.00
2010,07,08,07,19,16.10
2010,07,08,07,20,16.20
2010,07,08,07,21,16.20
2010,07,08,07,22,16.30
2010,07,08,07,23,16.30
2010,07,08,07,24,16.40
2010,07,08,07,25,16.40
2010,07,08,07,26,16.50
2010,07,08,07,27,16.50
2010,07,08,07,28,16.60
2010,07,08,07,29,16.60
2010,07,08,07,30,16.70
2010,07,08,07,31,16.70
2010,07,08,07,32,16.80
2010,07,08,07,33,16.80
2010,07,08,07,34,16.90
2010,07,08,07,35,16.90
2010,07,08,07,36,16.90
2010,07,08,07,37,17.00
2010,07,08,07,38,17.00
2010,07,08,07,39,17.10
2010,07,08,07,40,17.10
2010,07,08,07,41,17.10
2010,07,08,07,42,17.20
2010,07,08,07,43,17.20
2010,07,08,07,44,17.30
2010,07,08,07,45,17.30
2010,07,08,07,46,17.30
2010,07,08,07,47,17.40
2010,07,08,07,48,17.40
2010,07,08,07,49,17.50
2010,07,08,07,50,17.50
2010,07,08,07,51,17.60
2010,07,08,07,52,17.60
2010,07,08,07,53,17.60
2010,07,08,07,54,17.70
2010,07,08,07,55,17.70
2010,07,08,07,56,17.70
2010,07,08,07,57,17.80
2010,07,08,07,58,17.80
2010,07,08,07,59,17.90
2010,07,08,08,00,17.90
2010,07,08,08,01,18.00
2010,07,08,08,02,18.10
2010,07,08,08,03,18.10
2010,07,08,08,04,18.20
2010,07,08,08,05,18.20
2010,07,08,08,06,18.30
2010,07,08,08,07,18.30
2010,07,08,08,08,18.30
2010,07,08,08,09,18.40
2010,07,08,08,10,18.40
2010,07,08,08,11,18.50
2010,07,08,08,12,18.50
2010,07,08,08,13,18.60
2010,07,08,08,14,18.60
2010,07,08,08,15,18.70
2010,07,08,08,16,18.70
2010,07,08,08,17,18.80
2010,07,08,08,18,18.90
2010,07,08,08,19,18.90
2010,07,08,08,20,19.00
2010,07,08,08,21,19.10
2010,07,08,08,22,19.20
2010,07,08,08,23,19.20
2010,07,08,08,24,19.30
2010,07,08,08,25,19.40
2010,07,08,08,26,19.50
2010,07,08,08,27,19.60
2010,07,08,08,28,19.60
2010,07,08,08,29,19.70
2010,07,08,08,30,19.80
2010,07,08,08,31,19.90
2010,07,08,08,32,20.00
2010,07,08,08,33,20.10
2010,07,08,08,34,20.20
2010,07,08,08,35,20.30
2010,07,08,08,36,20.40
2010,07,08,08,37,20.50
2010,07,08,08,38,20.50
2010,07,08,08,39,20.60
2010,07,08,08,40,20.70
2010,07,08,08,41,20.70
2010,07,08,08,42,20.80
2010,07,08,08,43,20.90
2010,07,08,08,44,21.00
2010,07,08,08,45,21.00
2010,07,08,08,46,21.10
2010,07,08,08,47,21.10
2010,07,08,08,48,21.20
2010,07,08,08,49,21.20
2010,07,08,08,50,21.30
2010,07,08,08,51,21.40
2010,07,08,08,52,21.40
2010,07,08,08,53,21.50
2010,07,08,08,54,21.60
2010,07,08,08,55,21.60
2010,07,08,08,56,21.70
2010,07,08,08,57,21.70
2010,07,08,08,58,21.80
2010,07,08,08,59,21.80
2010,07,08,09,00,21.90
2010,07,08,09,01,21.90
2010,07,08,09,02,22.00
2010,07,08,09,03,22.10
2010,07,08,09,04,22.20
2010,07,08,09,05,22.30
2010,07,08,09,06,22.40
2010,07,08,09,07,22.50
2010,07,08,09,08,22.70
2010,07,08,09,09,22.80
2010,07,08,09,10,22.90
2010,07,08,09,11,23.00
2010,07,08,09,12,23.20
2010,07,08,09,13,23.30
2010,07,08,09,14,23.40
2010,07,08,09,15,23.40
2010,07,08,09,16,23.50
2010,07,08,09,17,23.50
2010,07,08,09,18,23.60
2010,07,08,09,19,23.70
2010,07,08,09,20,23.80
2010,07,08,09,21,23.80
2010,07,08,09,22,23.80
2010,07,08,09,23,23.90
2010,07,08,09,24,23.90
2010,07,08,09,25,24.00
2010,07,08,09,26,24.10
2010,07,08,09,27,24.20
2010,07,08,09,28,24.20
2010,07,08,09,29,24.30
2010,07,08,09,30,24.40
2010,07,08,09,31,24.50
2010,07,08,09,32,24.50
2010,07,08,09,33,24.60
2010,07,08,09,34,24.70
2010,07,08,09,35,24.70
2010,07,08,09,36,24.70
2010,07,08,09,37,24.80
2010,07,08,09,38,24.80
2010,07,08,09,39,24.90
2010,07,08,09,40,24.90
2010,07,08,09,41,25.00
2010,07,08,09,42,25.10
2010,07,08,09,43,25.10
2010,07,08,09,44,25.20
2010,07,08,09,45,25.20
2010,07,08,09,46,25.30
2010,07,08,09,47,25.30
2010,07,08,09,48,25.40
2010,07,08,09,49,25.40
2010,07,08,09,50,25.50
2010,07,08,09,51,25.60
2010,07,08,09,52,25.60
2010,07,08,09,53,25.60
2010,07,08,09,54,25.70
2010,07,08,09,55,25.80
2010,07,08,09,56,25.80
2010,07,08,09,57,25.80
2010,07,08,09,58,25.90
2010,07,08,09,59,25.90
2010,07,08,10,00,26.00
2010,07,08,10,01,26.10
2010,07,08,10,02,26.10
2010,07,08,10,03,26.20
2010,07,08,10,04,26.30
2010,07,08,10,05,26.40
2010,07,08,10,06,26.60
2010,07,08,10,07,26.70
2010,07,08,10,08,26.80
2010,07,08,10,09,26.90
2010,07,08,10,10,27.00
2010,07,08,10,11,27.10
2010,07,08,10,12,27.20
2010,07,08,10,13,27.20
2010,07,08,10,14,27.30
2010,07,08,10,15,27.40
2010,07,08,10,16,27.50
2010,07,08,10,17,27.50
2010,07,08,10,18,27.60
2010,07,08,10,19,27.70
2010,07,08,10,20,27.70
2010,07,08,10,21,27.70
2010,07,08,10,22,27.70
2010,07,08,10,23,27.70
2010,07,08,10,24,27.70
2010,07,08,10,25,27.80
2010,07,08,10,26,27.80
2010,07,08,10,27,27.80
2010,07,08,10,28,27.80
2010,07,08,10,29,27.80
2010,07,08,10,30,27.80
2010,07,08,10,31,27.80
2010,07,08,10,32,27.80
2010,07,08,10,33,27.80
2010,07,08,10,34,27.80
2010,07,08,10,35,27.90
2010,07,08,10,36,28.00
2010,07,08,10,37,28.10
2010,07,08,10,38,28.10
2010,07,08,10,39,28.10
2010,07,08,10,40,28.10
2010,07,08,10,41,28.10
2010,07,08,10,42,28.10
2010,07,08,10,43,28.10
2010,07,08,10,44,28.20
2010,07,08,10,45,28.20
2010,07,08,10,46,28.30
2010,07,08,10,47,28.30
2010,07,08,10,48,28.20
2010,07,08,10,49,28.20
2010,07,08,10,50,28.10
2010,07,08,10,51,28.10
2010,07,08,10,52,28.10
2010,07,08,10,53,28.00
2010,07,08,10,54,28.00
2010,07,08,10,55,28.00
2010,07,08,10,56,28.10
2010,07,08,10,57,28.20
2010,07,08,10,58,28.20
2010,07,08,10,59,28.30
2010,07,08,11,00,28.30
2010,07,08,11,01,28.40
2010,07,08,11,02,28.50
2010,07,08,11,03,28.60
2010,07,08,11,04,28.60
2010,07,08,11,05,28.60
2010,07,08,11,06,28.60
2010,07,08,11,07,28.60
2010,07,08,11,08,28.70
2010,07,08,11,09,28.70
2010,07,08,11,10,28.70
2010,07,08,11,11,28.60
2010,07,08,11,12,28.60
2010,07,08,11,13,28.60
2010,07,08,11,14,28.70
2010,07,08,11,15,28.70
2010,07,08,11,16,28.70
2010,07,08,11,17,28.70
2010,07,08,11,18,28.80
2010,07,08,11,19,28.90
2010,07,08,11,20,29.00
2010,07,08,11,21,29.00
2010,07,08,11,22,29.10
2010,07,08,11,23,29.20
2010,07,08,11,24,29.30
2010,07,08,11,25,29.30
2010,07,08,11,26,29.40
2010,07,08,11,27,29.60
2010,07,08,11,28,29.70
2010,07,08,11,29,29.80
2010,07,08,11,30,29.90
2010,07,08,11,31,30.00
2010,07,08,11,32,30.10
2010,07,08,11,33,30.00
2010,07,08,11,34,30.00
2010,07,08,11,35,30.10
2010,07,08,11,36,30.10
2010,07,08,11,37,30.10
2010,07,08,11,38,30.20
2010,07,08,11,39,30.20
2010,07,08,11,40,30.30
2010,07,08,11,41,30.40
2010,07,08,11,42,30.40
2010,07,08,11,43,30.40
2010,07,08,11,44,30.40
2010,07,08,11,45,30.40
2010,07,08,11,46,30.30
2010,07,08,11,47,30.20
2010,07,08,11,48,30.10
2010,07,08,11,49,30.00
2010,07,08,11,50,30.00
2010,07,08,11,51,29.90
2010,07,08,11,52,29.90
2010,07,08,11,53,29.90
2010,07,08,11,54,30.00
2010,07,08,11,55,30.00
2010,07,08,11,56,30.00
2010,07,08,11,57,30.00
2010,07,08,11,58,30.00
2010,07,08,11,59,30.10
2010,07,08,12,00,30.10
2010,07,08,12,01,30.10
2010,07,08,12,02,30.20
2010,07,08,12,03,30.30
2010,07,08,12,04,30.40
2010,07,08,12,05,30.50
2010,07,08,12,06,30.60
2010,07,08,12,07,30.60
2010,07,08,12,08,30.70
2010,07,08,12,09,30.80
2010,07,08,12,10,30.90
2010,07,08,12,11,31.00
2010,07,08,12,12,31.10
2010,07,08,12,13,31.10
2010,07,08,12,14,31.20
2010,07,08,12,15,31.30
2010,07,08,12,16,31.40
2010,07,08,12,17,31.40
2010,07,08,12,18,31.50
2010,07,08,12,19,31.50
2010,07,08,12,20,31.40
2010,07,08,12,21,31.30
2010,07,08,12,22,31.20
2010,07,08,12,23,31.10
2010,07,08,12,24,31.10
2010,07,08,12,25,31.10
2010,07,08,12,26,31.10
2010,07,08,12,27,31.10
2010,07,08,12,28,31.00
2010,07,08,12,29,31.10
2010,07,08,12,30,31.10
2010,07,08,12,31,31.10
2010,07,08,12,32,31.20
2010,07,08,12,33,31.20
2010,07,08,12,34,31.20
2010,07,08,12,35,31.30
2010,07,08,12,36,31.30
2010,07,08,12,37,31.30
2010,07,08,12,38,31.30
2010,07,08,12,39,31.40
2010,07,08,12,40,31.50
2010,07,08,12,41,31.60
2010,07,08,12,42,31.70
2010,07,08,12,43,31.80
2010,07,08,12,44,31.90
2010,07,08,12,45,31.90
2010,07,08,12,46,32.00
2010,07,08,12,47,32.10
2010,07,08,12,48,32.10
2010,07,08,12,49,32.20
2010,07,08,12,50,32.20
2010,07,08,12,51,32.20
2010,07,08,12,52,32.30
2010,07,08,12,53,32.30
2010,07,08,12,54,32.30
2010,07,08,12,55,32.30
2010,07,08,12,56,32.30
2010,07,08,12,57,32.30
2010,07,08,12,58,32.20
2010,07,08,12,59,32.20
2010,07,08,13,00,32.20
2010,07,08,13,01,32.10
2010,07,08,13,02,32.10
2010,07,08,13,03,32.20
2010,07,08,13,04,32.20
2010,07,08,13,05,32.20
2010,07,08,13,06,32.30
2010,07,08,13,07,32.30
2010,07,08,13,08,32.30
2010,07,08,13,09,32.40
2010,07,08,13,10,32.40
2010,07,08,13,11,32.30
2010,07,08,13,12,32.30
2010,07,08,13,13,32.30
2010,07,08,13,14,32.30
2010,07,08,13,15,32.40
2010,07,08,13,16,32.40
2010,07,08,13,17,32.40
2010,07,08,13,18,32.40
2010,07,08,13,19,32.20
2010,07,08,13,20,32.10
2010,07,08,13,21,32.00
2010,07,08,13,22,32.00
2010,07,08,13,23,31.90
2010,07,08,13,24,31.90
2010,07,08,13,25,31.90
2010,07,08,13,26,31.90
2010,07,08,13,27,31.90
2010,07,08,13,28,31.90
2010,07,08,13,29,31.90
2010,07,08,13,30,31.90
2010,07,08,13,31,31.90
2010,07,08,13,32,31.90
2010,07,08,13,33,32.00
2010,07,08,13,34,32.10
2010,07,08,13,35,32.10
2010,07,08,13,36,32.20
2010,07,08,13,37,32.20
2010,07,08,13,38,32.30
2010,07,08,13,39,32.30
2010,07,08,13,40,32.30
2010,07,08,13,41,32.30
2010,07,08,13,42,32.20
2010,07,08,13,43,32.10
2010,07,08,13,44,32.10
2010,07,08,13,45,32.10
2010,07,08,13,46,32.00
2010,07,08,13,47,31.90
2010,07,08,13,48,31.80
2010,07,08,13,49,31.80
2010,07,08,13,50,31.80
2010,07,08,13,51,31.80
2010,07,08,13,52,31.80
2010,07,08,13,53,31.80
2010,07,08,13,54,31.80
2010,07,08,13,55,31.80
2010,07,08,13,56,31.90
2010,07,08,13,57,32.00
2010,07,08,13,58,32.10
2010,07,08,13,59,32.20
2010,07,08,14,00,32.40
2010,07,08,14,01,32.50
2010,07,08,14,02,32.60
2010,07,08,14,03,32.60
2010,07,08,14,04,32.60
2010,07,08,14,05,32.60
2010,07,08,14,06,32.60
2010,07,08,14,07,32.60
2010,07,08,14,08,32.60
2010,07,08,14,09,32.60
2010,07,08,14,10,32.70
2010,07,08,14,11,32.80
2010,07,08,14,12,32.80
2010,07,08,14,13,32.90
2010,07,08,14,14,33.00
2010,07,08,14,15,33.10
2010,07,08,14,16,33.10
2010,07,08,14,17,33.20
2010,07,08,14,18,33.20
2010,07,08,14,19,33.30
2010,07,08,14,20,33.40
2010,07,08,14,21,33.50
2010,07,08,14,22,33.60
2010,07,08,14,23,33.70
2010,07,08,14,24,33.80
2010,07,08,14,25,33.90
2010,07,08,14,26,34.00
2010,07,08,14,27,34.10
2010,07,08,14,28,34.10
2010,07,08,14,29,34.20
2010,07,08,14,30,34.10
2010,07,08,14,31,34.10
2010,07,08,14,32,34.20
2010,07,08,14,33,34.20
2010,07,08,14,34,34.20
2010,07,08,14,35,34.20
2010,07,08,14,36,34.30
2010,07,08,14,37,34.30
2010,07,08,14,38,34.30
2010,07,08,14,39,34.30
2010,07,08,14,40,34.30
2010,07,08,14,41,34.20
2010,07,08,14,42,34.00
2010,07,08,14,43,33.90
2010,07,08,14,44,33.90
2010,07,08,14,45,33.90
2010,07,08,14,46,33.80
2010,07,08,14,47,33.60
2010,07,08,14,48,33.60
2010,07,08,14,49,33.60
2010,07,08,14,50,33.60
2010,07,08,14,51,33.60
2010,07,08,14,52,33.70
2010,07,08,14,53,33.70
2010,07,08,14,54,33.80
2010,07,08,14,55,33.80
2010,07,08,14,56,33.90
2010,07,08,14,57,33.90
2010,07,08,14,58,34.00
2010,07,08,14,59,34.10
2010,07,08,15,00,34.20
2010,07,08,15,01,34.30
2010,07,08,15,02,34.30
2010,07,08,15,03,34.30
2010,07,08,15,04,34.30
2010,07,08,15,05,34.20
2010,07,08,15,06,34.20
2010,07,08,15,07,34.10
2010,07,08,15,08,34.10
2010,07,08,15,09,34.00
2010,07,08,15,10,34.00
2010,07,08,15,11,34.00
2010,07,08,15,12,34.10
2010,07,08,15,13,34.10
2010,07,08,15,14,34.10
2010,07,08,15,15,34.10
2010,07,08,15,16,34.20
2010,07,08,15,17,34.30
2010,07,08,15,18,34.40
2010,07,08,15,19,34.50
2010,07,08,15,20,34.60
2010,07,08,15,21,34.70
2010,07,08,15,22,34.80
2010,07,08,15,23,34.80
2010,07,08,15,24,34.90
2010,07,08,15,25,34.90
2010,07,08,15,26,34.90
2010,07,08,15,27,34.90
2010,07,08,15,28,34.90
2010,07,08,15,29,34.90
2010,07,08,15,30,35.00
2010,07,08,15,31,35.00
2010,07,08,15,32,35.10
2010,07,08,15,33,35.10
2010,07,08,15,34,35.10
2010,07,08,15,35,35.20
2010,07,08,15,36,35.30
2010,07,08,15,37,35.30
2010,07,08,15,38,35.40
2010,07,08,15,39,35.40
2010,07,08,15,40,35.30
2010,07,08,15,41,35.30
2010,07,08,15,42,35.30
2010,07,08,15,43,35.30
2010,07,08,15,44,35.30
2010,07,08,15,45,35.30
2010,07,08,15,46,35.30
2010,07,08,15,47,35.30
2010,07,08,15,48,35.30
2010,07,08,15,49,35.30
2010,07,08,15,50,35.30
2010,07,08,15,51,35.30
2010,07,08,15,52,35.30
2010,07,08,15,53,35.40
2010,07,08,15,54,35.40
2010,07,08,15,55,35.40
2010,07,08,15,56,35.40
2010,07,08,15,57,35.50
2010,07,08,15,58,35.60
2010,07,08,15,59,35.60
2010,07,08,16,00,35.60
2010,07,08,16,01,35.60
2010,07,08,16,02,35.60
2010,07,08,16,03,35.50
2010,07,08,16,04,35.50
2010,07,08,16,05,35.50
2010,07,08,16,06,35.50
2010,07,08,16,07,35.60
2010,07,08,16,08,35.60
2010,07,08,16,09,35.60
2010,07,08,16,10,35.60
2010,07,08,16,11,35.60
2010,07,08,16,12,35.60
2010,07,08,16,13,35.60
2010,07,08,16,14,35.60
2010,07,08,16,15,35.70
2010,07,08,16,16,35.70
2010,07,08,16,17,35.70
2010,07,08,16,18,35.70
2010,07,08,16,19,35.70
2010,07,08,16,20,35.70
2010,07,08,16,21,35.70
2010,07,08,16,22,35.70
2010,07,08,16,23,35.70
2010,07,08,16,24,35.70
2010,07,08,16,25,35.70
2010,07,08,16,26,35.70
2010,07,08,16,27,35.70
2010,07,08,16,28,35.70
2010,07,08,16,29,35.80
2010,07,08,16,30,35.80
2010,07,08,16,31,35.80
2010,07,08,16,32,35.70
2010,07,08,16,33,35.70
2010,07,08,16,34,35.80
2010,07,08,16,35,35.80
2010,07,08,16,36,35.70
2010,07,08,16,37,35.70
2010,07,08,16,38,35.70
2010,07,08,16,39,35.70
2010,07,08,16,40,35.70
2010,07,08,16,41,35.60
2010,07,08,16,42,35.40
2010,07,08,16,43,35.40
2010,07,08,16,44,35.30
2010,07,08,16,45,35.30
2010,07,08,16,46,35.30
2010,07,08,16,47,35.30
2010,07,08,16,48,35.40
2010,07,08,16,49,35.40
2010,07,08,16,50,35.40
2010,07,08,16,51,35.40
2010,07,08,16,52,35.40
2010,07,08,16,53,35.30
2010,07,08,16,54,35.30
2010,07,08,16,55,35.20
2010,07,08,16,56,35.20
2010,07,08,16,57,35.20
2010,07,08,16,58,35.20
2010,07,08,16,59,35.20
2010,07,08,17,00,35.20
2010,07,08,17,01,35.20
2010,07,08,17,02,35.30
2010,07,08,17,03,35.30
2010,07,08,17,04,35.30
2010,07,08,17,05,35.20
2010,07,08,17,06,35.20
2010,07,08,17,07,35.10
2010,07,08,17,08,35.10
2010,07,08,17,09,35.20
2010,07,08,17,10,35.20
2010,07,08,17,11,35.20
2010,07,08,17,12,35.20
2010,07,08,17,13,35.20
2010,07,08,17,14,35.20
2010,07,08,17,15,35.20
2010,07,08,17,16,35.30
2010,07,08,17,17,35.30
2010,07,08,17,18,35.30
2010,07,08,17,19,35.30